Regional Weather Roundup
Issued by NWS

Home | Current Version | Previous Version | Graphics & Text | Print | Product List | Glossary On
Versions: 1 2 3 4 5 6 7 8 9 10 11 12 13 14 15 16 17 18 19 20 21 22 23 24 25 26 27 28 29 30 31 32 33 34 35 36 37 38 39 40 41 42 43 44 45 46 47 48 49 50
000
ASUS43 KBIS 291010
RWRND

NORTH DAKOTA REGIONAL WEATHER ROUNDUP
NATIONAL WEATHER SERVICE BISMARCK ND
500 AM CDT FRI JUL 29 2016

NOTE: "FAIR" INDICATES FEW OR NO CLOUDS BELOW 12,000 FEET WITH NO
SIGNIFICANT WEATHER AND/OR OBSTRUCTIONS TO VISIBILITY.


NDZ001>003-009>011-017-291100-
NORTHWEST NORTH DAKOTA

CITY           SKY/WX    TMP DP  RH WIND       PRES   REMARKS
WILLISTON      CLEAR     52  50  93 CALM      30.10F
MINOT          CLEAR     56  52  86 CALM      30.10F
MINOT AFB      CLEAR     50  47  90 W2        30.09F
$$

NDZ018>021-031>035-040>046-291100-
SOUTHWEST NORTH DAKOTA

CITY           SKY/WX    TMP DP  RH WIND       PRES   REMARKS
BISMARCK       CLOUDY    63  61  93 E3        30.10F
DICKINSON      CLOUDY    57  56  96 CALM      30.11F
GARRISON         N/A     58  56  93 N3        30.10F
HETTINGER ARPT PTCLDY    56  54  93 CALM      30.14F
$$

NDZ004>008-012>016-024-026-027-054-291100-
NORTHEAST NORTH DAKOTA

CITY           SKY/WX    TMP DP  RH WIND       PRES   REMARKS
GRAND FORKS    CLEAR     52  50  93 NW3       30.09S
GRND FRKS AFB  CLEAR     53  52  96 NW3       30.09F
DEVILS LAKE    CLEAR     56  55  97 CALM      30.12F
$$

NDZ022-023-025-028>030-036>039-047>053-291100-
SOUTHEAST NORTH DAKOTA

CITY           SKY/WX    TMP DP  RH WIND       PRES   REMARKS
FARGO          PTCLDY    59  55  87 N6        30.08S
JAMESTOWN      MOCLDY    61  59  93 E3        30.10F
$$





USA.gov is the U.S. government's official web portal to all federal, state and local government web resources and services.